Terug naar catalogus

STARLINK-34912

ActiefCommunicatieVLEO
NORAD 65378·PAYLOAD·🇺🇸 United States

Gelanceerd Aug 28, 2025 vanaf Cape Canaveral Space Force Station

Loading…

Volgende Passages (komende 24 uur)

TLE

VersSource: CelesTrak SupGP

Epoch: Sep 15, 2026, 03:09 UTC

1 65378C 25190AD  26258.13173611  .00069367  00000+0  20492-2 0  2589
2 65378  53.1605   7.1024 0001130  84.7700 344.5981 15.34360149    17

Volg STARLINK-34912 in realtime met AllMySat

Download on the App Store